SAS122 MMMX-MMUN

Flight info

Callsign SAS122
Flight time N/A
Altitude 41000
Route MMMX/05L 1935N09840W GOTAS UT65 PAULE PAUL3H/12L
Aircraft A359/H-SDE2E3GHIJ3J4J5LM1ORWXY/LB1D1

Departure

Time N/A
Airport Mexico City Benito Juárez International Airport (MMMX)

Arrival

Time 2026-05-03 21:01
Airport Cancún International Airport (MMUN)
Time Latitude Longitude Altitude Speed Heading
2026-05-03 20:15 19.25246 -90.86905 40971 ft 521 kts 90°
2026-05-03 20:15 19.25356 -90.79235 40971 ft 521 kts 90°
2026-05-03 20:16 19.25463 -90.71557 40969 ft 522 kts 90°
2026-05-03 20:16 19.25567 -90.63929 40967 ft 522 kts 90°
2026-05-03 20:17 19.25667 -90.56250 40961 ft 522 kts 90°
2026-05-03 20:17 19.25765 -90.48559 40962 ft 523 kts 90°
2026-05-03 20:18 19.25859 -90.40863 40958 ft 523 kts 90°
2026-05-03 20:18 19.25950 -90.33161 40956 ft 524 kts 90°
2026-05-03 20:19 19.25888 -90.25513 40957 ft 523 kts 93°
2026-05-03 20:19 19.25668 -90.17810 40952 ft 524 kts 93°
2026-05-03 20:20 19.25458 -90.10096 40956 ft 525 kts 93°
2026-05-03 20:20 19.25277 -90.02374 40953 ft 525 kts 93°
2026-05-03 20:21 19.25107 -89.94697 40954 ft 526 kts 93°
2026-05-03 20:21 19.24933 -89.86960 40953 ft 526 kts 93°
2026-05-03 20:22 19.24755 -89.79226 40952 ft 526 kts 93°
2026-05-03 20:22 19.24572 -89.71479 40953 ft 527 kts 93°
2026-05-03 20:23 19.24386 -89.63733 40950 ft 527 kts 93°
2026-05-03 20:23 19.24222 -89.56033 40944 ft 528 kts 90°
2026-05-03 20:24 19.25304 -89.48363 40950 ft 529 kts 76°
2026-05-03 20:24 19.27278 -89.40855 40948 ft 530 kts 73°
2026-05-03 20:25 19.29392 -89.33384 40946 ft 530 kts 73°
2026-05-03 20:25 19.31497 -89.25906 40941 ft 530 kts 73°
2026-05-03 20:26 19.33560 -89.18467 40940 ft 530 kts 74°
2026-05-03 20:26 19.35625 -89.10965 40939 ft 531 kts 74°
2026-05-03 20:26 19.36650 -89.07233 40696 ft 526 kts 74°
2026-05-03 20:27 19.37670 -89.03518 40093 ft 525 kts 74°
2026-05-03 20:27 19.38694 -88.99799 39429 ft 527 kts 73°
2026-05-03 20:27 19.39718 -88.96069 38774 ft 529 kts 73°
2026-05-03 20:27 19.40732 -88.92369 38052 ft 530 kts 73°
2026-05-03 20:28 19.41760 -88.88619 37375 ft 530 kts 73°
2026-05-03 20:28 19.42785 -88.84874 36729 ft 529 kts 73°
2026-05-03 20:28 19.43809 -88.81131 36087 ft 529 kts 73°
2026-05-03 20:28 19.44831 -88.77393 35454 ft 528 kts 73°
2026-05-03 20:29 19.45852 -88.73656 34829 ft 527 kts 73°
2026-05-03 20:29 19.46869 -88.69931 34195 ft 526 kts 73°
2026-05-03 20:29 19.47884 -88.66213 33497 ft 526 kts 73°
2026-05-03 20:29 19.48886 -88.62538 32680 ft 527 kts 73°
2026-05-03 20:30 19.49906 -88.58796 31807 ft 529 kts 73°
2026-05-03 20:30 19.50929 -88.55042 30952 ft 531 kts 73°
2026-05-03 20:30 19.51954 -88.51273 30103 ft 533 kts 74°
2026-05-03 20:30 19.52981 -88.47490 29166 ft 534 kts 74°
2026-05-03 20:31 19.54002 -88.43720 28453 ft 530 kts 74°
2026-05-03 20:31 19.55014 -88.39986 27805 ft 524 kts 74°
2026-05-03 20:31 19.56014 -88.36292 27170 ft 519 kts 74°
2026-05-03 20:31 19.56991 -88.32680 26570 ft 514 kts 74°
2026-05-03 20:32 19.57970 -88.29059 25986 ft 508 kts 74°
2026-05-03 20:32 19.58938 -88.25474 25409 ft 503 kts 74°
2026-05-03 20:32 19.59894 -88.21931 24842 ft 497 kts 73°
2026-05-03 20:32 19.60841 -88.18419 24320 ft 492 kts 73°
2026-05-03 20:33 19.61776 -88.14951 24027 ft 489 kts 73°
2026-05-03 20:33 19.62711 -88.11479 23946 ft 490 kts 73°
2026-05-03 20:33 19.63645 -88.08007 23939 ft 489 kts 73°
2026-05-03 20:33 19.64578 -88.04537 23942 ft 489 kts 73°
2026-05-03 20:34 19.65509 -88.01072 23937 ft 489 kts 73°
2026-05-03 20:34 19.66440 -87.97602 23951 ft 489 kts 73°
2026-05-03 20:34 19.67357 -87.94183 23942 ft 489 kts 73°
2026-05-03 20:34 19.68285 -87.90718 23949 ft 489 kts 73°
2026-05-03 20:35 19.69211 -87.87258 23838 ft 482 kts 73°
2026-05-03 20:35 19.70122 -87.83852 23171 ft 479 kts 73°
2026-05-03 20:35 19.71028 -87.80464 22408 ft 476 kts 73°
2026-05-03 20:35 19.71927 -87.77099 21738 ft 472 kts 73°
2026-05-03 20:36 19.72816 -87.73766 21098 ft 467 kts 73°
2026-05-03 20:36 19.73695 -87.70467 20465 ft 462 kts 73°
2026-05-03 20:36 19.74564 -87.67208 19866 ft 457 kts 73°
2026-05-03 20:36 19.75411 -87.64027 19265 ft 452 kts 74°
2026-05-03 20:37 19.76257 -87.60844 18897 ft 442 kts 74°
2026-05-03 20:37 19.77078 -87.57754 18661 ft 428 kts 74°
2026-05-03 20:37 19.77875 -87.54752 18448 ft 415 kts 74°
2026-05-03 20:37 19.78646 -87.51848 18227 ft 403 kts 74°
2026-05-03 20:38 19.79395 -87.49022 17998 ft 392 kts 74°
2026-05-03 20:38 19.80126 -87.46264 17625 ft 385 kts 73°
2026-05-03 20:38 19.80847 -87.43543 17163 ft 381 kts 73°
2026-05-03 20:38 19.81748 -87.40915 16702 ft 377 kts 63°
2026-05-03 20:39 19.83109 -87.38604 16260 ft 372 kts 53°
2026-05-03 20:39 19.84632 -87.36400 15792 ft 369 kts 52°
2026-05-03 20:39 19.86156 -87.34222 15340 ft 366 kts 52°
2026-05-03 20:39 19.87722 -87.32104 14769 ft 365 kts 47°
2026-05-03 20:40 19.89656 -87.30324 13936 ft 373 kts 32°
2026-05-03 20:40 19.92046 -87.29225 12999 ft 379 kts 13°
2026-05-03 20:40 19.93766 -87.28869 12346 ft 382 kts
2026-05-03 20:40 19.96416 -87.28479 11487 ft 386 kts
2026-05-03 20:41 19.99069 -87.28112 10800 ft 383 kts
2026-05-03 20:41 20.01701 -87.27745 10158 ft 380 kts
2026-05-03 20:41 20.05134 -87.27262 9490 ft 368 kts
2026-05-03 20:41 20.07621 -87.26909 9211 ft 353 kts
2026-05-03 20:42 20.10009 -87.26569 8972 ft 339 kts
2026-05-03 20:42 20.11567 -87.26347 8810 ft 330 kts
2026-05-03 20:42 20.13774 -87.26034 8603 ft 317 kts
2026-05-03 20:42 20.15917 -87.25729 8415 ft 305 kts
2026-05-03 20:43 20.17984 -87.25437 8243 ft 294 kts
2026-05-03 20:43 20.19990 -87.25152 7949 ft 288 kts
2026-05-03 20:43 20.21972 -87.24869 7570 ft 286 kts
2026-05-03 20:43 20.23939 -87.24588 7181 ft 285 kts
2026-05-03 20:44 20.25899 -87.24308 6791 ft 284 kts
2026-05-03 20:44 20.27854 -87.24029 6400 ft 283 kts
2026-05-03 20:44 20.29805 -87.23749 6017 ft 282 kts
2026-05-03 20:44 20.31713 -87.23476 5664 ft 279 kts
2026-05-03 20:45 20.33628 -87.23202 5298 ft 277 kts
2026-05-03 20:45 20.35529 -87.22930 4929 ft 275 kts
2026-05-03 20:45 20.37414 -87.22661 4554 ft 272 kts
2026-05-03 20:45 20.39287 -87.22393 4174 ft 270 kts
2026-05-03 20:46 20.41145 -87.22128 3806 ft 268 kts
2026-05-03 20:46 20.42986 -87.21865 3430 ft 267 kts
2026-05-03 20:46 20.44819 -87.21603 3090 ft 264 kts
2026-05-03 20:46 20.46642 -87.21342 2972 ft 265 kts
2026-05-03 20:47 20.48469 -87.21081 2964 ft 266 kts
2026-05-03 20:47 20.50277 -87.20822 2969 ft 265 kts
2026-05-03 20:47 20.52105 -87.20560 2972 ft 265 kts
2026-05-03 20:47 20.53937 -87.20297 2971 ft 266 kts
2026-05-03 20:48 20.55767 -87.20034 2972 ft 265 kts
2026-05-03 20:48 20.57596 -87.19773 2972 ft 266 kts
2026-05-03 20:48 20.59429 -87.19510 2973 ft 266 kts
2026-05-03 20:48 20.61262 -87.19247 2970 ft 266 kts
2026-05-03 20:49 20.63091 -87.18984 2974 ft 266 kts
2026-05-03 20:49 20.64926 -87.18721 2969 ft 266 kts
2026-05-03 20:49 20.66733 -87.18462 2969 ft 266 kts
2026-05-03 20:49 20.68559 -87.18200 2966 ft 260 kts
2026-05-03 20:50 20.70291 -87.17952 2973 ft 242 kts
2026-05-03 20:50 20.71904 -87.17720 2974 ft 226 kts
2026-05-03 20:50 20.73416 -87.17503 2973 ft 214 kts
2026-05-03 20:50 20.74885 -87.17291 2969 ft 213 kts
2026-05-03 20:51 20.76372 -87.17077 2980 ft 225 kts
2026-05-03 20:51 20.78048 -87.16836 2952 ft 257 kts
2026-05-03 20:51 20.79857 -87.16576 2956 ft 266 kts
2026-05-03 20:51 20.81672 -87.16315 2967 ft 267 kts
2026-05-03 20:52 20.83510 -87.16050 2968 ft 267 kts
2026-05-03 20:52 20.85346 -87.15786 2970 ft 267 kts
2026-05-03 20:52 20.87184 -87.15522 2970 ft 267 kts
2026-05-03 20:52 20.89024 -87.15257 2976 ft 267 kts
2026-05-03 20:53 20.90863 -87.14993 2972 ft 267 kts
2026-05-03 20:53 20.92703 -87.14728 2978 ft 267 kts
2026-05-03 20:53 20.94546 -87.14462 2977 ft 267 kts
2026-05-03 20:53 20.96392 -87.14196 2980 ft 268 kts
2026-05-03 20:54 20.98212 -87.13934 2981 ft 268 kts
2026-05-03 20:54 21.01902 -87.13402 2986 ft 268 kts
2026-05-03 20:54 21.03752 -87.13135 2984 ft 268 kts
2026-05-03 20:55 21.05538 -87.12670 2972 ft 259 kts 22°
2026-05-03 20:55 21.07017 -87.11665 2959 ft 248 kts 45°
2026-05-03 20:55 21.08095 -87.10280 3005 ft 237 kts 54°
2026-05-03 20:55 21.09024 -87.08870 2981 ft 226 kts 56°
2026-05-03 20:56 21.09878 -87.07536 2904 ft 215 kts 56°
2026-05-03 20:56 21.10709 -87.06228 2631 ft 211 kts 56°
2026-05-03 20:56 21.11531 -87.04929 2313 ft 210 kts 56°
2026-05-03 20:56 21.12342 -87.03641 2053 ft 206 kts 56°
2026-05-03 20:57 21.13058 -87.02377 1998 ft 192 kts 65°
2026-05-03 20:57 21.13264 -87.00998 1993 ft 189 kts 96°
2026-05-03 20:57 21.12780 -86.99702 2002 ft 189 kts 121°
2026-05-03 20:57 21.12018 -86.98557 2003 ft 189 kts 126°
2026-05-03 20:58 21.11276 -86.97448 2002 ft 176 kts 123°
2026-05-03 20:58 21.10609 -86.96377 1849 ft 172 kts 122°
2026-05-03 20:58 21.09956 -86.95326 1617 ft 170 kts 123°
2026-05-03 20:58 21.09312 -86.94297 1403 ft 162 kts 123°
2026-05-03 20:59 21.08706 -86.93326 1187 ft 153 kts 122°
2026-05-03 20:59 21.08133 -86.92406 999 ft 145 kts 122°
2026-05-03 20:59 21.07577 -86.91513 819 ft 143 kts 123°
2026-05-03 20:59 21.07040 -86.90650 645 ft 135 kts 123°
2026-05-03 21:00 21.06526 -86.89824 457 ft 132 kts 123°
2026-05-03 21:00 21.06197 -86.89282 366 ft 130 kts 121°
2026-05-03 21:00 21.05536 -86.88234 115 ft 125 kts 125°
2026-05-03 21:00 21.05061 -86.87488 41 ft 114 kts 123°
2026-05-03 21:01 21.04735 -86.86961 37 ft 55 kts 123°
2026-05-03 21:01 21.04550 -86.86661 38 ft 33 kts 123°
2026-05-03 21:01 21.04428 -86.86481 37 ft 28 kts 139°
2026-05-03 21:01 21.04274 -86.86376 39 ft 23 kts 157°
2026-05-03 21:02 21.04149 -86.86314 47 ft 16 kts 150°
2026-05-03 21:02 21.04081 -86.86247 49 ft 11 kts 133°
2026-05-03 21:02 21.04024 -86.86235 51 ft 7 kts 193°
2026-05-03 21:02 21.03994 -86.86249 52 ft 4 kts 208°
2026-05-03 21:03 21.03908 -86.86308 55 ft 17 kts 213°
2026-05-03 21:03 21.03811 -86.86376 49 ft 18 kts 213°
2026-05-03 21:03 21.03696 -86.86459 43 ft 23 kts 214°
2026-05-03 21:03 21.03583 -86.86544 35 ft 12 kts 228°
2026-05-03 21:04 21.03580 -86.86620 34 ft 12 kts 285°
2026-05-03 21:04 21.03605 -86.86708 35 ft 12 kts 300°
2026-05-03 21:04 21.03628 -86.86746 35 ft 0 kts 303°